When you browse on this site, cookies collect data to enhance your experience and personalize the content and advertising you see.
Visit our Privacy Policy to learn more. By continuing to use the site, you agree to this use of cookies and data.
  • In Portugal
  • List of Countries
  • For 7 days
  • Water Temperature
  • Weather Map
  • Weather Widgets
  • user-avatar
    Login

    Hourly Weather Knighton

    Today, 22 September, Sunday

    Time Temperature Precipitation Wind Pressure Humidity
    00:00 +14°C° 0 mm 2 mps 724 mmHg 90%
    01:00 +14°C° 0.2 mm 2 mps 723 mmHg 92%
    02:00 +14°C° 0.2 mm 2 mps 722 mmHg 94%
    03:00 +14°C° 0.2 mm 2 mps 722 mmHg 96%
    04:00 +14°C° 0.1 mm 2 mps 722 mmHg 96%
    05:00 +14°C° 0.1 mm 2 mps 722 mmHg 97%
    06:00 +13°C° 0.1 mm 3 mps 721 mmHg 97%
    07:00 +15°C° 0.3 mm 2 mps 722 mmHg 97%
    08:00 +15°C° 0.3 mm 2 mps 722 mmHg 96%
    09:00 +16°C° 0.3 mm 2 mps 722 mmHg 96%
    10:00 +16°C° 0.2 mm 2 mps 722 mmHg 93%
    11:00 +16°C° 0.2 mm 3 mps 722 mmHg 91%
    12:00 +16°C° 0.2 mm 3 mps 722 mmHg 89%
    13:00 +17°C° 0.2 mm 3 mps 722 mmHg 88%
    14:00 +17°C° 0.2 mm 3 mps 722 mmHg 86%
    15:00 +17°C° 0.2 mm 3 mps 722 mmHg 85%
    16:00 +16°C° 0.4 mm 3 mps 722 mmHg 87%
    17:00 +14°C° 0.4 mm 3 mps 722 mmHg 90%
    18:00 +14°C° 0.4 mm 2 mps 722 mmHg 92%
    19:00 +13°C° 0.1 mm 2 mps 722 mmHg 93%
    20:00 +12°C° 0.1 mm 2 mps 723 mmHg 94%
    21:00 +11°C° 0.1 mm 1 mps 723 mmHg 94%
    22:00 +11°C° 0.1 mm 1 mps 723 mmHg 95%
    23:00 +10°C° 0.1 mm 2 mps 724 mmHg 95%

    Tomorrow, 23 September, Monday

    Time Temperature Precipitation Wind Pressure Humidity
    00:00 +10°C° 0.1 mm 2 mps 724 mmHg 95%
    01:00 +10°C° 0 mm 2 mps 724 mmHg 95%
    02:00 +10°C° 0 mm 3 mps 725 mmHg 96%
    03:00 +10°C° 0 mm 3 mps 725 mmHg 96%
    04:00 +9°C° 0 mm 3 mps 725 mmHg 95%
    05:00 +9°C° 0 mm 3 mps 725 mmHg 95%
    06:00 +9°C° 0 mm 3 mps 726 mmHg 94%
    07:00 +10°C° 0 mm 3 mps 726 mmHg 91%
    08:00 +11°C° 0 mm 3 mps 727 mmHg 87%
    09:00 +13°C° 0 mm 4 mps 727 mmHg 84%
    10:00 +13°C° 0 mm 4 mps 727 mmHg 81%
    11:00 +14°C° 0 mm 5 mps 727 mmHg 78%
    12:00 +15°C° 0 mm 5 mps 727 mmHg 75%
    13:00 +15°C° 0.2 mm 6 mps 726 mmHg 79%
    14:00 +14°C° 0.2 mm 6 mps 726 mmHg 83%
    15:00 +13°C° 0.2 mm 6 mps 725 mmHg 86%
    16:00 +13°C° 0.6 mm 6 mps 725 mmHg 90%
    17:00 +11°C° 0.6 mm 6 mps 724 mmHg 93%
    18:00 +11°C° 0.6 mm 6 mps 724 mmHg 96%
    19:00 +12°C° 0.1 mm 5 mps 724 mmHg 96%
    20:00 +13°C° 0.1 mm 4 mps 724 mmHg 97%
    21:00 +13°C° 0.1 mm 3 mps 724 mmHg 97%
    22:00 +13°C° 0.2 mm 3 mps 723 mmHg 97%
    23:00 +13°C° 0.2 mm 3 mps 723 mmHg 97%

    Day after tomorrow, 24 September, Tuesday

    Time Temperature Precipitation Wind Pressure Humidity
    00:00 +13°C° 0.2 mm 3 mps 722 mmHg 98%
    01:00 +13°C° 0.3 mm 3 mps 722 mmHg 97%
    02:00 +14°C° 0.3 mm 3 mps 722 mmHg 97%
    03:00 +14°C° 0.3 mm 3 mps 721 mmHg 96%
    04:00 +13°C° 0.4 mm 3 mps 720 mmHg 97%
    05:00 +13°C° 0.4 mm 3 mps 720 mmHg 97%
    06:00 +14°C° 0.4 mm 2 mps 719 mmHg 98%
    07:00 +13°C° 1.6 mm 3 mps 719 mmHg 97%
    08:00 +13°C° 1.6 mm 3 mps 719 mmHg 96%
    09:00 +14°C° 1.6 mm 3 mps 719 mmHg 95%
    10:00 +13°C° 3.4 mm 4 mps 719 mmHg 93%
    11:00 +13°C° 3.4 mm 4 mps 719 mmHg 91%
    12:00 +13°C° 3.4 mm 4 mps 719 mmHg 90%
    13:00 +14°C° 0.3 mm 5 mps 719 mmHg 88%
    14:00 +14°C° 0.3 mm 6 mps 719 mmHg 87%
    15:00 +14°C° 0.3 mm 6 mps 719 mmHg 86%
    16:00 +14°C° 0.3 mm 6 mps 719 mmHg 88%
    17:00 +13°C° 0.3 mm 5 mps 719 mmHg 91%
    18:00 +12°C° 0.3 mm 5 mps 718 mmHg 93%
    19:00 +12°C° 0.4 mm 5 mps 718 mmHg 94%
    20:00 +12°C° 0.4 mm 5 mps 718 mmHg 94%
    21:00 +12°C° 0.4 mm 5 mps 718 mmHg 95%
    22:00 +12°C° 0.5 mm 5 mps 718 mmHg 95%
    23:00 +12°C° 0.5 mm 5 mps 718 mmHg 95%

    25 September, Wednesday

    Time Temperature Precipitation Wind Pressure Humidity
    00:00 +12°C° 0.5 mm 5 mps 718 mmHg 96%
    01:00 +12°C° 0.3 mm 4 mps 718 mmHg 96%
    02:00 +12°C° 0.3 mm 4 mps 718 mmHg 96%
    03:00 +12°C° 0.3 mm 3 mps 718 mmHg 95%
    04:00 +12°C° 0.1 mm 4 mps 718 mmHg 95%
    05:00 +12°C° 0.1 mm 4 mps 718 mmHg 95%
    06:00 +12°C° 0.1 mm 5 mps 719 mmHg 95%
    07:00 +12°C° 0.1 mm 5 mps 719 mmHg 93%
    08:00 +13°C° 0.1 mm 5 mps 720 mmHg 92%
    09:00 +13°C° 0.1 mm 6 mps 720 mmHg 91%
    10:00 +14°C° 0 mm 6 mps 721 mmHg 88%
    11:00 +14°C° 0 mm 6 mps 721 mmHg 85%
    12:00 +15°C° 0 mm 6 mps 721 mmHg 82%
    13:00 +15°C° 0 mm 5 mps 721 mmHg 83%
    14:00 +15°C° 0 mm 5 mps 721 mmHg 84%
    15:00 +15°C° 0 mm 5 mps 721 mmHg 85%
    16:00 +14°C° 0.2 mm 4 mps 721 mmHg 89%
    17:00 +14°C° 0.2 mm 3 mps 721 mmHg 92%
    18:00 +13°C° 0.2 mm 3 mps 720 mmHg 96%
    19:00 +14°C° 0.6 mm 3 mps 720 mmHg 96%
    20:00 +14°C° 0.6 mm 3 mps 720 mmHg 97%
    21:00 +14°C° 0.6 mm 3 mps 720 mmHg 97%
    22:00 +14°C° 0.6 mm 4 mps 720 mmHg 96%
    23:00 +14°C° 0.6 mm 5 mps 719 mmHg 95%

    26 September, Thursday

    Time Temperature Precipitation Wind Pressure Humidity
    00:00 +14°C° 0.6 mm 6 mps 719 mmHg 93%
    01:00 +14°C° 0.6 mm 6 mps 719 mmHg 94%
    02:00 +14°C° 0.6 mm 6 mps 719 mmHg 94%
    03:00 +13°C° 0.6 mm 5 mps 719 mmHg 94%
    04:00 +12°C° 0.1 mm 5 mps 719 mmHg 94%
    05:00 +11°C° 0.1 mm 4 mps 719 mmHg 93%
    06:00 +10°C° 0.1 mm 4 mps 719 mmHg 92%
    07:00 +11°C° 0 mm 4 mps 720 mmHg 89%
    08:00 +12°C° 0 mm 5 mps 720 mmHg 86%
    09:00 +11°C° 0 mm 6 mps 720 mmHg 83%
    10:00 +13°C° 0.1 mm 6 mps 720 mmHg 83%
    11:00 +13°C° 0.1 mm 6 mps 720 mmHg 82%
    12:00 +13°C° 0.1 mm 6 mps 720 mmHg 82%
    13:00 +13°C° 0.4 mm 6 mps 720 mmHg 84%
    14:00 +11°C° 0.4 mm 6 mps 720 mmHg 87%
    15:00 +12°C° 0.4 mm 5 mps 720 mmHg 89%
    16:00 +10°C° 0.2 mm 5 mps 720 mmHg 90%
    17:00 +11°C° 0.2 mm 4 mps 720 mmHg 90%
    18:00 +10°C° 0.2 mm 4 mps 720 mmHg 91%
    19:00 +10°C° 0 mm 4 mps 720 mmHg 92%
    20:00 +8°C° 0 mm 4 mps 720 mmHg 93%
    21:00 +8°C° 0 mm 4 mps 721 mmHg 94%
    22:00 +8°C° 0 mm 4 mps 721 mmHg 94%
    23:00 +8°C° 0 mm 4 mps 720 mmHg 94%

    27 September, Friday

    Time Temperature Precipitation Wind Pressure Humidity
    00:00 +8°C° 0 mm 4 mps 720 mmHg 94%
    01:00 +8°C° 0 mm 4 mps 720 mmHg 94%
    02:00 +8°C° 0 mm 4 mps 720 mmHg 94%
    03:00 +8°C° 0 mm 4 mps 720 mmHg 94%
    04:00 +8°C° 0 mm 4 mps 720 mmHg 94%
    05:00 +8°C° 0 mm 4 mps 721 mmHg 94%
    06:00 +8°C° 0 mm 4 mps 721 mmHg 93%
    07:00 +10°C° 0 mm 4 mps 721 mmHg 90%
    08:00 +10°C° 0 mm 5 mps 721 mmHg 86%
    09:00 +11°C° 0 mm 6 mps 721 mmHg 83%
    10:00 +11°C° 0.1 mm 6 mps 721 mmHg 82%
    11:00 +11°C° 0.1 mm 7 mps 721 mmHg 81%
    12:00 +12°C° 0.1 mm 7 mps 721 mmHg 79%
    13:00 +12°C° 0.1 mm 7 mps 721 mmHg 80%
    14:00 +12°C° 0.1 mm 7 mps 721 mmHg 82%
    15:00 +12°C° 0.1 mm 8 mps 720 mmHg 83%
    16:00 +11°C° 0.1 mm 7 mps 720 mmHg 85%
    17:00 +11°C° 0.1 mm 7 mps 720 mmHg 86%
    18:00 +10°C° 0.1 mm 6 mps 720 mmHg 88%
    19:00 +10°C° 0.6 mm 6 mps 720 mmHg 90%
    20:00 +10°C° 0.6 mm 6 mps 720 mmHg 92%
    21:00 +10°C° 0.6 mm 6 mps 721 mmHg 93%
    22:00 +10°C° 0.7 mm 6 mps 720 mmHg 93%
    23:00 +10°C° 0.7 mm 6 mps 720 mmHg 93%
    Show more